Wind_Speed
44 32 29 30 34 37 39 37 37 31 23 22 23 22 18 16 17 16 14 12 13 14 17 18 17 23 27 38 48 40 44 63 65 68 70 73 76 83 84 86 89 93 90 88 90
41 35 33 38 42 42 39 34 27 23 21 22 23 20 18 16 16 17 14 15 14 16 18 23 25 25 25 28 40 48 52 50 53 55 62 65 75 75 78 80 85 90 95 95 92
38 39 38 44 44 38 30 30 25 21 22 21 21 20 20 20 18 18 18 18 16 15 17 20 24 28 33 37 37 39 47 54 57 60 68 68 71 70 76 78 83 87 95 99 99
39 40 41 42 39 31 26 25 25 22 22 21 20 20 21 21 21 21 22 22 21 22 18 19 22 26 29 33 38 44 49 52 54 56 62 66 70 71 74 75 81 82 84 87 91
41 40 41 36 32 31 28 25 26 23 21 22 22 20 22 23 22 23 25 25 26 25 22 24 27 28 29 32 35 41 46 51 56 61 62 62 65 71 76 76 78 82 82 83 85
40 38 33 30 31 29 26 22 19 21 22 22 23 22 22 24 25 27 28 30 31 30 30 32 33 35 36 37 40 44 45 48 54 58 63 66 72 73 75 80 85 85 84 85 86
37 33 29 27 24 21 20 16 15 20 22 25 26 24 24 26 29 29 32 32 33 33 33 35 37 42 44 46 47 47 48 50 55 57 60 63 68 77 81 83 84 87 90 87 86
31 29 23 17 18 15 14 13 14 16 22 25 26 24 27 29 30 33 35 35 38 40 41 42 44 48 49 51 53 54 56 57 59 59 64 65 66 76 79 85 88 89 92 93 91
33 24 15 11 10 8 7 11 16 21 25 26 24 25 28 30 32 35 37 40 43 45 46 48 49 50 53 55 57 60 62 65 67 68 63 69 71 77 82 82 83 90 94 96 98
29 23 20 19 17 13 12 14 13 18 22 23 24 27 30 31 34 38 41 43 46 48 50 52 54 57 59 61 64 66 67 69 70 71 72 73 69 80 84 86 89 92 93 97 102
29 26 26 25 21 20 18 18 18 18 21 28 27 29 32 34 37 41 44 45 48 52 56 60 63 65 66 69 71 72 73 74 78 78 71 77 72 77 80 83 85 88 94 95 103
28 27 29 25 22 25 23 20 22 18 22 26 33 35 36 39 42 43 45 49 52 57 61 65 68 70 71 71 72 75 77 79 79 83 75 77 80 80 78 76 79 84 90 94 98
23 28 31 31 26 28 26 27 25 24 27 29 34 39 41 43 44 43 45 47 53 58 61 65 67 67 68 71 73 75 79 83 85 85 86 75 76 76 76 76 77 81 87 95 100
31 28 32 32 31 31 30 28 26 28 35 32 39 38 42 42 45 48 53 54 58 63 65 69 68 70 71 73 72 75 81 88 89 84 81 72 67 72 71 73 75 80 85 92 96
35 31 30 34 37 39 38 41 36 38 40 39 44 39 41 47 47 51 55 61 63 68 69 68 71 69 69 70 76 78 86 90 90 84 77 71 58 59 59 61 65 73 84 87 92
46 35 34 34 38 39 39 44 44 45 49 42 46 43 44 45 51 56 61 66 67 70 75 73 73 71 72 78 82 86 89 89 86 84 81 72 59 55 50 50 57 62 70 79 85
47 49 39 39 39 34 39 40 43 45 47 48 43 43 44 46 49 56 61 65 68 72 68 71 71 72 73 81 87 89 87 83 84 82 77 68 58 50 46 42 47 54 62 70 78
53 54 49 44 48 45 43 47 51 53 51 49 48 45 46 51 52 52 53 58 62 65 64 70 75 72 80 84 84 84 83 82 80 76 68 59 48 42 39 36 37 43 51 57 64
58 61 55 51 54 51 50 52 57 57 54 53 54 47 50 52 55 55 56 58 58 60 66 70 78 80 81 83 82 80 81 81 77 67 56 44 40 37 34 32 32 35 40 47 52
68 64 65 60 59 61 58 58 60 59 60 57 54 49 51 54 57 54 58 57 60 60 67 75 78 82 78 78 79 80 79 75 62 49 42 37 35 33 32 33 30 29 33 37 42
74 64 70 71 63 67 66 65 62 57 56 61 56 49 56 56 56 59 59 57 61 62 69 74 78 76 74 75 78 77 74 63 48 37 31 32 32 29 28 27 29 29 29 32 35
77 71 71 72 72 69 67 67 53 58 59 59 60 52 58 59 55 60 59 60 65 66 73 75 75 70 73 74 75 74 63 50 39 33 31 29 28 27 27 29 27 29 30 30 31
76 76 74 73 70 64 70 64 55 61 59 59 60 54 53 57 57 59 60 60 67 70 74 73 69 65 71 70 70 68 53 41 30 28 27 24 26 29 32 34 35 32 30 29 28
76 82 84 76 72 69 69 62 59 57 60 58 53 54 55 57 55 62 59 62 67 72 72 70 68 64 68 68 68 62 47 34 25 25 20 23 24 27 30 30 33 34 29 25 24
76 76 79 72 70 71 66 66 59 61 58 55 54 53 52 53 56 64 61 64 67 71 69 67 62 61 65 64 67 53 37 24 18 17 20 21 28 30 32 40 39 30 23 20 18
79 78 75 72 72 68 66 64 62 62 62 60 55 54 53 55 62 65 63 65 67 69 64 62 55 57 59 59 64 45 25 18 17 16 24 28 29 36 46 51 39 36 25 20 14
87 83 78 75 73 70 64 65 69 66 62 60 54 55 55 56 58 62 63 66 68 68 63 62 52 55 53 55 59 39 15 16 18 16 26 23 27 34 47 37 37 36 29 24 16
Wind_Direction
303 306 309 313 311 309 305 306 307 313 311 305 310 314 326 337 341 342 336 307 284 272 253 260 250 241 245 237 234 229 239 231 228 226 236 239 238 241 244 246 248 247 249 252 253
303 308 308 304 301 306 309 313 307 311 304 302 306 313 325 332 330 331 329 332 313 284 270 250 240 244 254 246 236 235 239 242 250 247 246 246 241 241 244 244 245 247 249 250 250
301 297 295 296 302 303 303 303 307 308 297 296 302 314 320 321 319 320 319 322 317 311 288 276 269 260 251 244 248 252 246 246 249 251 251 253 248 247 246 246 247 250 251 251 251
291 293 298 295 298 298 296 301 302 299 291 291 298 308 313 311 312 314 312 314 313 310 308 298 286 282 276 269 262 256 254 255 257 255 252 251 253 251 251 249 249 248 250 249 250
290 293 296 297 297 297 291 293 293 293 285 286 289 298 303 305 304 306 307 311 311 310 304 303 303 298 290 283 276 269 265 260 257 255 256 259 259 255 250 245 249 250 250 251 251
291 297 296 296 299 295 292 291 290 283 280 276 282 289 298 301 300 299 303 307 305 300 297 298 298 299 296 293 290 284 279 273 265 262 260 257 257 256 257 255 249 245 249 249 251
294 296 295 294 296 298 289 288 290 280 284 275 280 287 298 298 299 301 303 304 301 300 296 293 290 294 298 299 297 293 282 274 272 270 264 258 259 259 254 254 255 254 250 247 248
290 293 290 284 290 297 297 294 289 287 280 282 285 289 304 302 299 300 299 300 298 298 299 298 298 301 302 302 299 298 294 287 277 269 265 265 262 261 259 257 255 255 256 254 248
282 281 269 276 296 303 339 325 305 291 278 277 285 296 304 302 299 296 296 297 299 299 299 299 302 302 302 300 299 297 295 293 286 281 272 268 262 261 260 258 256 255 254 253 253
275 263 263 274 280 296 293 304 325 311 299 288 293 301 300 297 292 295 299 300 299 298 298 299 300 302 301 300 299 298 297 294 292 286 282 279 271 259 258 256 256 254 253 253 251
270 257 257 272 276 280 294 285 303 306 310 298 296 302 299 295 294 299 301 297 296 298 299 300 300 301 300 301 301 299 298 297 294 290 285 284 283 273 263 256 254 254 254 254 252
258 257 260 266 272 281 281 289 294 300 317 307 294 294 294 295 296 300 296 297 297 299 300 301 302 303 303 303 302 301 299 295 290 290 292 291 288 280 274 266 261 257 250 248 250
253 260 263 271 271 281 281 290 298 298 311 309 314 301 296 298 296 293 294 293 294 300 304 307 305 304 302 303 303 300 297 292 293 293 294 294 290 282 275 266 259 253 251 246 243
261 257 262 268 272 281 292 293 300 300 306 302 301 314 306 298 295 290 291 297 302 307 307 306 305 303 301 303 302 299 298 294 297 301 302 301 294 286 278 268 257 253 250 248 243
269 258 261 265 273 280 286 288 291 304 309 298 304 306 313 301 296 298 295 299 303 309 310 308 307 306 307 306 307 308 303 303 308 311 310 307 300 287 277 268 261 252 250 248 246
257 263 261 267 271 267 278 284 290 296 297 300 305 301 305 310 302 298 299 300 304 306 308 308 310 311 314 314 313 309 308 312 314 315 314 313 309 298 288 270 260 253 248 247 245
256 258 254 258 268 273 278 284 291 298 299 302 301 296 300 308 313 304 302 303 304 305 310 312 314 319 319 321 315 309 315 316 317 316 315 314 310 303 293 282 265 257 250 244 242
258 260 257 256 267 274 287 283 288 292 298 301 302 290 299 304 313 313 308 307 308 308 311 317 320 322 324 321 314 316 318 320 320 318 316 313 309 304 297 286 271 260 255 252 248
266 254 256 254 264 273 277 283 286 289 295 296 301 289 296 298 312 314 315 316 311 313 316 321 324 327 325 319 317 320 321 323 322 321 317 316 313 312 306 296 282 268 256 250 248
262 264 256 265 261 275 277 281 284 286 285 289 298 291 290 297 310 312 316 316 316 314 320 325 327 325 324 320 320 323 325 324 323 320 319 317 320 323 318 308 300 285 268 257 250
260 259 255 261 265 268 275 277 283 280 279 281 293 289 291 298 306 313 314 316 319 319 322 327 327 326 322 320 323 328 327 327 324 322 325 327 327 322 317 311 302 293 274 262 254
257 256 253 255 264 269 270 270 277 269 276 278 286 293 290 297 304 313 315 318 322 322 322 326 330 329 319 326 329 333 333 333 333 336 338 339 337 333 321 311 307 300 290 276 265
252 255 257 257 261 261 263 269 272 268 272 276 286 288 297 296 302 311 318 318 321 321 323 328 335 329 324 332 334 336 339 339 344 347 351 357 356 346 341 338 328 317 302 289 272
250 250 254 257 255 258 262 260 267 270 269 277 284 286 292 295 300 309 314 317 319 320 326 334 335 330 329 335 337 346 344 349 355 353 3 359 355 353 356 344 335 333 322 307 285
247 245 252 258 256 257 258 253 270 268 269 278 283 288 293 297 295 308 311 314 318 323 329 336 333 333 336 339 342 345 346 352 359 8 358 359 1 357 357 358 353 351 339 326 304
242 248 251 252 255 256 255 257 267 266 268 273 280 287 291 291 297 305 308 314 319 323 330 338 334 337 340 340 342 345 350 350 6 9 11 11 11 5 1 351 358 0 356 347 337
243 245 248 247 249 254 254 256 264 264 265 274 279 279 285 290 297 303 306 313 318 323 331 338 335 338 341 342 345 345 360 1 3 8 11 16 16 4 349 3 7 7 10 16 7
Height
10717 10715 10714 10712 10710 10708 10706 10704 10701 10697 10696 10695 10693 10692 10690 10687 10686 10685 10684 10683 10684 10684 10685 10685 10687 10690 10692 10693 10694 10695 10694 10694 10696 10700 10701 10705 10710 10708 10711 10712 10716 10721 10728 10734 10736
10709 10708 10707 10706 10704 10702 10699 10697 10695 10693 10691 10690 10688 10687 10686 10685 10684 10683 10682 10681 10680 10680 10680 10682 10683 10684 10685 10686 10688 10690 10689 10689 10690 10692 10693 10696 10698 10699 10700 10700 10699 10703 10712 10717 10719
10701 10701 10701 10699 10697 10695 10692 10691 10689 10689 10687 10685 10685 10683 10682 10681 10681 10680 10679 10678 10677 10676 10676 10676 10678 10679 10680 10682 10682 10681 10680 10681 10680 10681 10683 10681 10686 10685 10688 10688 10685 10689 10694 10701 10704
10695 10693 10693 10692 10690 10688 10686 10685 10684 10683 10682 10680 10681 10680 10678 10677 10676 10675 10675 10674 10673 10672 10673 10672 10672 10673 10673 10673 10673 10671 10671 10670 10668 10668 10669 10667 10671 10672 10672 10672 10670 10675 10677 10682 10685
10686 10685 10686 10684 10682 10680 10679 10678 10677 10678 10677 10675 10675 10676 10675 10673 10672 10670 10669 10668 10667 10667 10666 10666 10665 10665 10664 10663 10662 10661 10660 10659 10656 10656 10655 10656 10653 10652 10654 10656 10656 10657 10660 10664 10669
10678 10677 10677 10677 10675 10673 10671 10670 10671 10672 10672 10671 10671 10671 10671 10669 10667 10665 10664 10662 10661 10660 10659 10658 10657 10655 10654 10653 10651 10648 10645 10643 10641 10640 10640 10642 10635 10635 10632 10633 10637 10639 10640 10645 10648
10672 10671 10670 10670 10668 10666 10665 10664 10665 10666 10666 10667 10666 10666 10665 10664 10662 10660 10658 10657 10654 10653 10652 10650 10648 10646 10643 10640 10637 10635 10631 10629 10624 10622 10623 10623 10618 10611 10609 10613 10614 10615 10620 10625 10630
10665 10665 10664 10663 10663 10661 10660 10659 10659 10660 10661 10661 10661 10661 10661 10659 10657 10654 10651 10650 10647 10645 10643 10640 10637 10634 10631 10628 10624 10621 10617 10613 10605 10605 10604 10602 10605 10591 10589 10592 10594 10594 10596 10599 10607
10659 10659 10659 10658 10657 10657 10656 10655 10655 10654 10655 10655 10655 10655 10654 10652 10650 10648 10645 10642 10639 10636 10632 10629 10626 10622 10618 10614 10610 10605 10601 10595 10588 10582 10584 10579 10583 10571 10563 10566 10572 10570 10571 10574 10577
10652 10653 10654 10653 10653 10652 10652 10652 10650 10649 10649 10649 10649 10649 10647 10645 10643 10640 10638 10635 10631 10627 10623 10619 10615 10611 10606 10599 10593 10588 10584 10576 10566 10561 10560 10553 10555 10545 10539 10546 10542 10544 10543 10545 10549
10645 10646 10647 10647 10647 10647 10648 10647 10647 10646 10645 10644 10644 10643 10641 10638 10635 10632 10628 10625 10621 10618 10613 10608 10603 10597 10591 10584 10575 10567 10561 10553 10541 10531 10537 10525 10526 10511 10512 10518 10517 10516 10518 10518 10521
10637 10638 10640 10640 10641 10642 10642 10642 10642 10640 10640 10640 10638 10636 10634 10631 10628 10623 10620 10616 10612 10607 10601 10596 10589 10582 10574 10566 10555 10547 10538 10529 10520 10506 10506 10501 10493 10481 10481 10486 10484 10479 10481 10488 10489
10628 10630 10632 10633 10633 10635 10635 10635 10635 10634 10634 10634 10632 10629 10626 10623 10619 10615 10611 10606 10602 10598 10590 10582 10574 10566 10556 10548 10539 10525 10515 10502 10493 10489 10478 10481 10464 10449 10446 10448 10445 10445 10446 10451 10455
10621 10622 10624 10625 10626 10626 10628 10628 10627 10628 10627 10627 10625 10622 10618 10615 10612 10607 10602 10597 10591 10584 10577 10570 10560 10551 10541 10532 10521 10507 10492 10477 10471 10464 10451 10445 10438 10418 10412 10411 10413 10414 10415 10417 10425
10613 10613 10615 10617 10618 10619 10619 10619 10619 10620 10620 10618 10615 10612 10609 10606 10602 10597 10592 10586 10579 10572 10564 10553 10544 10535 10523 10512 10499 10485 10469 10457 10445 10433 10419 10411 10405 10388 10382 10380 10380 10384 10386 10390 10394
10602 10604 10605 10607 10608 10609 10610 10610 10610 10611 10611 10609 10606 10603 10601 10597 10592 10588 10582 10575 10568 10560 10550 10539 10529 10520 10508 10491 10475 10461 10448 10438 10422 10407 10393 10381 10374 10361 10357 10356 10352 10355 10360 10363 10369
10589 10593 10595 10596 10598 10599 10600 10601 10601 10600 10600 10599 10597 10594 10592 10589 10583 10577 10571 10565 10558 10551 10537 10525 10515 10506 10495 10478 10456 10439 10433 10421 10404 10389 10373 10362 10351 10346 10338 10337 10335 10334 10336 10341 10345
10577 10580 10583 10585 10587 10588 10589 10591 10590 10590 10589 10589 10587 10584 10582 10578 10573 10567 10560 10553 10547 10539 10528 10517 10503 10493 10478 10458 10442 10429 10414 10401 10386 10372 10356 10342 10337 10330 10324 10322 10320 10319 10322 10326 10331
10562 10566 10570 10572 10574 10576 10578 10579 10579 10579 10578 10577 10576 10574 10571 10567 10563 10557 10549 10543 10535 10527 10517 10505 10490 10476 10461 10441 10427 10417 10401 10385 10367 10351 10342 10334 10324 10319 10314 10310 10307 10305 10306 10309 10313
10547 10552 10555 10557 10560 10563 10566 10567 10567 10567 10567 10566 10565 10564 10561 10557 10553 10547 10540 10534 10526 10517 10506 10494 10479 10461 10447 10431 10416 10402 10388 10371 10357 10346 10334 10326 10320 10315 10309 10302 10299 10297 10296 10297 10301
10530 10535 10537 10541 10546 10551 10553 10553 10554 10554 10554 10554 10554 10553 10551 10547 10542 10537 10530 10524 10516 10506 10495 10486 10472 10450 10434 10419 10405 10392 10376 10360 10349 10340 10332 10324 10319 10312 10305 10298 10293 10289 10287 10286 10289
10511 10516 10519 10526 10533 10537 10538 10539 10541 10541 10543 10544 10544 10542 10540 10537 10532 10527 10521 10513 10505 10496 10485 10475 10463 10442 10423 10411 10395 10380 10365 10353 10341 10334 10327 10321 10316 10310 10303 10297 10291 10285 10281 10281 10282
10492 10497 10501 10510 10518 10522 10522 10527 10529 10528 10531 10532 10533 10531 10529 10527 10524 10518 10511 10504 10496 10487 10476 10465 10454 10439 10416 10403 10389 10373 10359 10349 10340 10334 10329 10323 10317 10308 10301 10293 10285 10279 10275 10273 10273
10474 10477 10483 10494 10502 10506 10509 10514 10516 10516 10519 10520 10521 10521 10519 10517 10512 10510 10504 10496 10489 10479 10469 10455 10440 10427 10411 10398 10382 10369 10357 10348 10341 10336 10332 10327 10322 10313 10304 10295 10285 10277 10270 10265 10265
10452 10460 10466 10480 10485 10489 10493 10501 10502 10503 10506 10508 10509 10510 10509 10507 10502 10499 10495 10489 10482 10472 10462 10452 10437 10421 10405 10392 10379 10367 10358 10351 10346 10341 10336 10330 10322 10315 10305 10295 10284 10274 10266 10261 10259
10436 10444 10452 10463 10465 10473 10480 10486 10488 10489 10493 10495 10498 10498 10499 10498 10494 10491 10486 10481 10474 10465 10455 10446 10434 10418 10405 10390 10377 10366 10358 10354 10348 10343 10338 10331 10323 10313 10302 10293 10284 10274 10266 10260 10257
10427 10431 10438 10445 10451 10458 10465 10469 10472 10476 10481 10483 10488 10488 10489 10488 10485 10482 10477 10472 10466 10459 10451 10440 10428 10413 10402 10388 10375 10363 10359 10356 10352 10347 10342 10336 10328 10321 10310 10300 10287 10276 10267 10262 10258